{"data":{"norad_id":61072,"epoch":"2026-05-25T04:10:25.556160Z","epoch_age_seconds":63254,"freshness":"FRESH","line1":"1 61072U 24165B   26145.17390690  .00004366  00000+0  26470-3 0  9997","line2":"2 61072  64.0746 117.8350 0051959 308.1075  51.5360 15.10874414 93189","mean_motion":15.10874414,"eccentricity":0.0051959,"inclination_deg":64.0746,"raan_deg":117.835,"arg_perigee_deg":308.1075,"mean_anomaly_deg":51.536,"bstar":0.0002647,"rev_number":9318,"period_min":95.309046645885,"perigee_km":497.6196370735,"apogee_km":569.44431875821,"semimajor_km":6911.6689779159,"source":"CELESTRAK","updated_at":"2026-05-25T13:38:02.309344Z"}}